Time,TemperatureF,DewpointF,PressureIn,WindDirection,WindDirectionDegrees,WindSpeedMPH,WindSpeedGustMPH,Humidity,HourlyPrecipIn,Conditions,Clouds,dailyrainin,SoftwareType,DateUTC
2013-04-29 00:06:00,55.0,49.0,29.76,SSE,167,2.0,4.0,80,0.00,,,0.00,weatherlink.com 1.10,2013-04-29 05:06:00,
2013-04-29 00:21:00,55.9,50.0,29.76,SE,146,5.0,6.0,79,0.00,,,0.00,weatherlink.com 1.10,2013-04-29 05:21:00,
2013-04-29 00:36:00,56.1,49.0,29.76,SSE,155,4.0,6.0,78,0.00,,,0.00,weatherlink.com 1.10,2013-04-29 05:36:00,
2013-04-29 00:51:00,55.4,49.0,29.77,SSE,165,6.0,9.0,80,0.00,,,0.00,weatherlink.com 1.10,2013-04-29 05:51:00,
2013-04-29 01:06:00,54.6,49.0,29.77,SSW,213,3.0,8.0,82,0.00,,,0.00,weatherlink.com 1.10,2013-04-29 06:06:00,
2013-04-29 01:21:00,53.2,49.0,29.77,South,177,3.0,5.0,85,0.00,,,0.00,weatherlink.com 1.10,2013-04-29 06:21:00,
2013-04-29 01:36:00,53.0,49.0,29.77,South,185,2.0,5.0,86,0.00,,,0.00,weatherlink.com 1.10,2013-04-29 06:36:00,
2013-04-29 01:52:00,52.3,48.0,29.77,South,184,3.0,5.0,86,0.00,,,0.00,weatherlink.com 1.10,2013-04-29 06:52:00,
2013-04-29 02:07:00,51.6,48.0,29.77,South,181,2.0,4.0,88,0.00,,,0.00,weatherlink.com 1.10,2013-04-29 07:07:00,
2013-04-29 02:22:00,52.1,48.0,29.76,SSW,196,4.0,4.0,87,0.00,,,0.00,weatherlink.com 1.10,2013-04-29 07:22:00,
2013-04-29 02:37:00,52.8,49.0,29.76,SSW,198,4.0,7.0,86,0.00,,,0.00,weatherlink.com 1.10,2013-04-29 07:37:00,
2013-04-29 02:52:00,52.5,48.0,29.75,South,188,1.0,6.0,85,0.00,,,0.00,weatherlink.com 1.10,2013-04-29 07:52:00,
2013-04-29 03:07:00,52.1,48.0,29.76,SW,215,4.0,5.0,87,0.00,,,0.00,weatherlink.com 1.10,2013-04-29 08:07:00,
2013-04-29 03:22:00,52.2,49.0,29.77,SW,224,4.0,6.0,87,0.00,,,0.00,weatherlink.com 1.10,2013-04-29 08:22:00,
2013-04-29 03:37:00,51.9,49.0,29.77,SSW,213,4.0,6.0,88,0.00,,,0.00,weatherlink.com 1.10,2013-04-29 08:37:00,
2013-04-29 03:52:00,52.5,49.0,29.77,SSW,213,5.0,8.0,88,0.00,,,0.00,weatherlink.com 1.10,2013-04-29 08:52:00,
2013-04-29 04:07:00,52.5,49.0,29.77,South,188,3.0,6.0,87,0.00,,,0.00,weatherlink.com 1.10,2013-04-29 09:07:00,
2013-04-29 04:22:00,51.2,48.0,29.77,SSW,208,3.0,4.0,89,0.00,,,0.00,weatherlink.com 1.10,2013-04-29 09:22:00,
2013-04-29 04:37:00,52.0,50.0,29.78,SW,229,3.0,6.0,91,0.00,,,0.00,weatherlink.com 1.10,2013-04-29 09:37:00,
2013-04-29 04:52:00,52.5,49.0,29.78,SW,222,5.0,6.0,89,0.00,,,0.00,weatherlink.com 1.10,2013-04-29 09:52:00,
2013-04-29 05:07:00,52.6,50.0,29.79,SW,221,4.0,8.0,89,0.00,,,0.00,weatherlink.com 1.10,2013-04-29 10:07:00,
2013-04-29 05:22:00,51.7,49.0,29.78,SSW,193,0.0,5.0,89,0.00,,,0.00,weatherlink.com 1.10,2013-04-29 10:22:00,
2013-04-29 05:37:00,51.4,49.0,29.78,South,182,1.0,5.0,91,0.00,,,0.00,weatherlink.com 1.10,2013-04-29 10:37:00,
2013-04-29 05:52:00,50.5,48.0,29.78,SSE,166,1.0,3.0,91,0.00,,,0.00,weatherlink.com 1.10,2013-04-29 10:52:00,
2013-04-29 06:07:00,50.0,48.0,29.78,South,179,1.0,4.0,92,0.00,,,0.00,weatherlink.com 1.10,2013-04-29 11:07:00,
2013-04-29 06:22:00,49.7,48.0,29.78,South,180,3.0,5.0,94,0.00,,,0.00,weatherlink.com 1.10,2013-04-29 11:22:00,
2013-04-29 06:37:00,50.1,49.0,29.79,SW,225,0.0,3.0,94,0.00,,,0.00,weatherlink.com 1.10,2013-04-29 11:37:00,
2013-04-29 06:52:00,50.0,48.0,29.79,WSW,239,0.0,3.0,93,0.00,,,0.00,weatherlink.com 1.10,2013-04-29 11:52:00,
2013-04-29 07:07:00,50.2,49.0,29.80,SW,225,3.0,3.0,94,0.00,,,0.00,weatherlink.com 1.10,2013-04-29 12:07:00,
2013-04-29 07:22:00,50.6,49.0,29.80,SSW,210,3.0,5.0,94,0.00,,,0.00,weatherlink.com 1.10,2013-04-29 12:22:00,
2013-04-29 07:37:00,51.2,50.0,29.80,South,177,1.0,5.0,94,0.00,,,0.00,weatherlink.com 1.10,2013-04-29 12:37:00,
2013-04-29 07:52:00,51.6,50.0,29.80,SSE,161,2.0,5.0,94,0.00,,,0.00,weatherlink.com 1.10,2013-04-29 12:52:00,
2013-04-29 08:07:00,51.4,50.0,29.80,South,169,1.0,5.0,93,0.00,,,0.00,weatherlink.com 1.10,2013-04-29 13:07:00,
2013-04-29 08:22:00,52.3,51.0,29.80,SSE,160,3.0,7.0,94,0.00,,,0.00,weatherlink.com 1.10,2013-04-29 13:22:00,
2013-04-29 08:37:00,53.7,52.0,29.79,South,190,6.0,8.0,92,0.00,,,0.00,weatherlink.com 1.10,2013-04-29 13:37:00,
2013-04-29 08:52:00,55.2,52.0,29.79,East,96,2.0,8.0,90,0.00,,,0.00,weatherlink.com 1.10,2013-04-29 13:52:00,
2013-04-29 09:07:00,56.5,52.0,29.79,SE,145,5.0,8.0,86,0.00,,,0.00,weatherlink.com 1.10,2013-04-29 14:07:00,
2013-04-29 09:22:00,57.8,53.0,29.78,SE,127,5.0,8.0,83,0.00,,,0.00,weatherlink.com 1.10,2013-04-29 14:22:00,
2013-04-29 09:37:00,58.9,53.0,29.78,SE,139,6.0,10.0,80,0.00,,,0.00,weatherlink.com 1.10,2013-04-29 14:37:00,
2013-04-29 09:52:00,60.5,53.0,29.77,SSE,165,6.0,8.0,77,0.00,,,0.00,weatherlink.com 1.10,2013-04-29 14:52:00,
2013-04-29 10:07:00,61.7,54.0,29.78,SSW,200,7.0,8.0,75,0.00,,,0.00,weatherlink.com 1.10,2013-04-29 15:07:00,
2013-04-29 10:22:00,62.5,53.0,29.77,South,190,10.0,12.0,70,0.00,,,0.00,weatherlink.com 1.10,2013-04-29 15:22:00,
2013-04-29 10:37:00,62.6,53.0,29.77,SE,126,4.0,9.0,72,0.00,,,0.00,weatherlink.com 1.10,2013-04-29 15:37:00,
2013-04-29 10:52:00,62.9,53.0,29.76,SSE,163,6.0,9.0,71,0.00,,,0.00,weatherlink.com 1.10,2013-04-29 15:52:00,
2013-04-29 11:07:00,62.9,53.0,29.76,SW,223,5.0,7.0,71,0.00,,,0.00,weatherlink.com 1.10,2013-04-29 16:07:00,
2013-04-29 11:22:00,62.6,53.0,29.76,SSE,159,8.0,10.0,70,0.00,,,0.00,weatherlink.com 1.10,2013-04-29 16:22:00,
2013-04-29 11:37:00,62.7,54.0,29.76,SSE,167,3.0,7.0,72,0.00,,,0.00,weatherlink.com 1.10,2013-04-29 16:37:00,
2013-04-29 11:52:00,63.0,53.0,29.76,South,173,5.0,6.0,71,0.00,,,0.00,weatherlink.com 1.10,2013-04-29 16:52:00,
2013-04-29 12:08:00,63.2,53.0,29.74,SE,126,4.0,8.0,69,0.00,,,0.00,weatherlink.com 1.10,2013-04-29 17:08:00,
2013-04-29 12:23:00,63.2,54.0,29.75,SSW,202,3.0,9.0,73,0.00,,,0.00,weatherlink.com 1.10,2013-04-29 17:23:00,
2013-04-29 12:38:00,63.3,53.0,29.71,SE,133,7.0,9.0,69,0.00,,,0.00,weatherlink.com 1.10,2013-04-29 17:38:00,
2013-04-29 12:53:00,64.0,54.0,29.72,SE,127,4.0,7.0,69,0.00,,,0.00,weatherlink.com 1.10,2013-04-29 17:53:00,
2013-04-29 13:08:00,64.7,54.0,29.73,SSE,163,2.0,5.0,68,0.00,,,0.00,weatherlink.com 1.10,2013-04-29 18:08:00,
2013-04-29 13:23:00,65.6,53.0,29.73,South,173,1.0,6.0,65,0.00,,,0.00,weatherlink.com 1.10,2013-04-29 18:23:00,
2013-04-29 13:38:00,66.4,54.0,29.72,ESE,103,1.0,5.0,64,0.00,,,0.00,weatherlink.com 1.10,2013-04-29 18:38:00,
2013-04-29 13:53:00,65.8,55.0,29.71,NNE,22,2.0,6.0,68,0.00,,,0.00,weatherlink.com 1.10,2013-04-29 18:53:00,
2013-04-29 14:08:00,66.5,52.0,29.70,SE,141,7.0,10.0,59,0.00,,,0.00,weatherlink.com 1.10,2013-04-29 19:08:00,
2013-04-29 14:23:00,69.4,51.0,29.69,SE,140,10.0,14.0,52,0.00,,,0.00,weatherlink.com 1.10,2013-04-29 19:23:00,
2013-04-29 14:53:00,70.9,53.0,29.68,SE,133,19.0,19.0,54,0.00,,,0.00,weatherlink.com 1.10,2013-04-29 19:53:00,
2013-04-29 15:08:00,71.4,52.0,29.67,SE,138,14.0,18.0,51,0.00,,,0.00,weatherlink.com 1.10,2013-04-29 20:08:00,
2013-04-29 15:23:00,71.1,53.0,29.66,ESE,121,15.0,18.0,53,0.00,,,0.00,weatherlink.com 1.10,2013-04-29 20:23:00,
2013-04-29 15:38:00,71.0,52.0,29.64,SE,129,15.0,20.0,52,0.00,,,0.00,weatherlink.com 1.10,2013-04-29 20:38:00,
2013-04-29 15:53:00,72.5,53.0,29.62,SE,127,14.0,23.0,51,0.00,,,0.00,weatherlink.com 1.10,2013-04-29 20:53:00,
2013-04-29 16:08:00,73.5,55.0,29.62,SSE,152,13.0,22.0,52,0.00,,,0.00,weatherlink.com 1.10,2013-04-29 21:08:00,
2013-04-29 16:23:00,73.9,55.0,29.62,SE,144,14.0,20.0,52,0.00,,,0.00,weatherlink.com 1.10,2013-04-29 21:23:00,
2013-04-29 16:38:00,73.3,56.0,29.62,South,170,11.0,19.0,54,0.00,,,0.00,weatherlink.com 1.10,2013-04-29 21:38:00,
2013-04-29 16:53:00,73.7,57.0,29.63,SE,133,15.0,18.0,56,0.00,,,0.00,weatherlink.com 1.10,2013-04-29 21:53:00,
2013-04-29 17:08:00,74.5,57.0,29.63,ESE,107,7.0,16.0,54,0.00,,,0.00,weatherlink.com 1.10,2013-04-29 22:08:00,
2013-04-29 17:23:00,73.4,56.0,29.63,ESE,119,11.0,18.0,55,0.00,,,0.00,weatherlink.com 1.10,2013-04-29 22:23:00,
2013-04-29 17:38:00,72.3,57.0,29.63,SE,126,11.0,18.0,59,0.00,,,0.00,weatherlink.com 1.10,2013-04-29 22:38:00,
2013-04-29 17:53:00,72.6,57.0,29.62,ESE,112,12.0,17.0,58,0.00,,,0.00,weatherlink.com 1.10,2013-04-29 22:53:00,
2013-04-29 18:08:00,72.9,57.0,29.62,SSE,150,8.0,19.0,57,0.00,,,0.00,weatherlink.com 1.10,2013-04-29 23:08:00,
2013-04-29 18:23:00,72.3,57.0,29.62,SSE,148,13.0,17.0,59,0.00,,,0.00,weatherlink.com 1.10,2013-04-29 23:23:00,
2013-04-29 18:38:00,71.6,57.0,29.62,SE,146,10.0,16.0,60,0.00,,,0.00,weatherlink.com 1.10,2013-04-29 23:38:00,
2013-04-29 18:53:00,71.0,57.0,29.62,SE,146,11.0,16.0,62,0.00,,,0.00,weatherlink.com 1.10,2013-04-29 23:53:00,
2013-04-29 19:08:00,70.5,58.0,29.62,SE,144,11.0,14.0,64,0.00,,,0.00,weatherlink.com 1.10,2013-04-30 00:08:00,
2013-04-29 19:23:00,69.8,58.0,29.61,SE,142,12.0,15.0,66,0.00,,,0.00,weatherlink.com 1.10,2013-04-30 00:23:00,
2013-04-29 19:38:00,69.1,58.0,29.61,SE,140,10.0,15.0,68,0.00,,,0.00,weatherlink.com 1.10,2013-04-30 00:38:00,
2013-04-29 19:53:00,69.2,58.0,29.62,SE,136,14.0,17.0,67,0.00,,,0.00,weatherlink.com 1.10,2013-04-30 00:53:00,
2013-04-29 20:08:00,68.8,58.0,29.62,SE,145,15.0,17.0,68,0.00,,,0.00,weatherlink.com 1.10,2013-04-30 01:08:00,
2013-04-29 20:23:00,67.4,58.0,29.62,SE,132,11.0,15.0,71,0.00,,,0.00,weatherlink.com 1.10,2013-04-30 01:23:00,
2013-04-29 20:38:00,66.7,58.0,29.63,SE,132,12.0,15.0,73,0.00,,,0.00,weatherlink.com 1.10,2013-04-30 01:38:00,
2013-04-29 20:53:00,66.5,58.0,29.62,SE,128,13.0,16.0,73,0.00,,,0.00,weatherlink.com 1.10,2013-04-30 01:53:00,
2013-04-29 21:08:00,66.5,58.0,29.63,SE,145,10.0,20.0,74,0.00,,,0.00,weatherlink.com 1.10,2013-04-30 02:08:00,
2013-04-29 21:23:00,66.5,58.0,29.64,SE,141,14.0,16.0,74,0.00,,,0.00,weatherlink.com 1.10,2013-04-30 02:23:00,
2013-04-29 21:38:00,66.7,58.0,29.64,SE,133,13.0,18.0,74,0.00,,,0.00,weatherlink.com 1.10,2013-04-30 02:38:00,
2013-04-29 21:53:00,66.5,58.0,29.64,SSE,148,12.0,18.0,75,0.00,,,0.00,weatherlink.com 1.10,2013-04-30 02:53:00,
2013-04-29 22:08:00,66.3,58.0,29.64,SSE,149,14.0,19.0,75,0.00,,,0.00,weatherlink.com 1.10,2013-04-30 03:08:00,
2013-04-29 22:23:00,66.1,58.0,29.64,SSE,165,14.0,18.0,76,0.00,,,0.00,weatherlink.com 1.10,2013-04-30 03:23:00,
2013-04-29 22:38:00,65.4,58.0,29.64,SSE,156,11.0,18.0,78,0.00,,,0.00,weatherlink.com 1.10,2013-04-30 03:38:00,
2013-04-29 22:53:00,65.0,58.0,29.64,SE,146,14.0,19.0,78,0.00,,,0.00,weatherlink.com 1.10,2013-04-30 03:53:00,
2013-04-29 23:08:00,65.0,58.0,29.63,ESE,111,4.0,19.0,78,0.00,,,0.00,weatherlink.com 1.10,2013-04-30 04:08:00,
2013-04-29 23:23:00,64.5,58.0,29.63,SW,217,8.0,18.0,79,0.00,,,0.00,weatherlink.com 1.10,2013-04-30 04:23:00,
2013-04-29 23:38:00,64.2,58.0,29.62,South,177,7.0,19.0,79,0.00,,,0.00,weatherlink.com 1.10,2013-04-30 04:38:00,
2013-04-29 23:53:00,63.7,57.0,29.63,SSE,156,11.0,17.0,80,0.00,,,0.00,weatherlink.com 1.10,2013-04-30 04:53:00,